Regional Weather Roundup
Issued by NWS

Home | Current Version | Previous Version | Text Only | Print | Product List | Glossary On
Versions: 1 2 3 4 5 6 7 8 9 10 11 12 13 14 15 16 17 18 19 20 21 22 23 24 25 26 27
000
ASUS44 KJAN 231510
RWRMS

MISSISSIPPI HOURLY WEATHER ROUNDUP
NATIONAL WEATHER SERVICE JACKSON MS
1000 AM CDT SAT SEP 23 2017

NOTE: "FAIR: INDICATES FEW OR NO CLOUDS BELOW 12,000 FEET WITH NO
SIGNIFICANT WEATHER AND/OR OBSTRUCTIONS TO VISIBILITY.

MSZ001>002-007>008-010>013-018>021-025>028-034>036-231600-
NORTHWEST MISSISSIPPI

CITY           SKY/WX    TMP DP  RH WIND       PRES   REMARKS
BATESVILLE     FAIR      82  72  71 CALM      30.03S
CLARKSDALE       N/A     82  75  78 CALM      30.02S
CLEVELAND      FAIR      84  73  67 MISG      30.01R HX  90
GREENWOOD      SUNNY     82  73  74 CALM      30.01R
GREENVILLE     SUNNY     84  72  67 E5        30.00R
OLIVE BRANCH   SUNNY    N/A N/A N/A CALM      30.03S
OXFORD         FAIR      82  70  65 SE3       30.05R
TUNICA           N/A     81  70  69 CALM      30.03S
WINONA         FAIR      81  73  76 CALM      30.02S
$$

MSZ003>006-009-014>017-022>024-029>033-037>039-231600-
NORTHEAST MISSISSIPPI

CITY           SKY/WX    TMP DP  RH WIND       PRES   REMARKS
COLUMBUS AFB   SUNNY     83  75  76 CALM      30.02S HX  90
GOLDN TRIANGLE SUNNY    N/A N/A N/A NE5       30.03R
STARKVILLE     FAIR      81  72  74 CALM      30.04S
TUPELO         SUNNY     81  68  64 SE3       30.04R
$$

MSZ040-058-231600-
CENTRAL MISSISSIPPI

CITY           SKY/WX    TMP DP  RH WIND       PRES   REMARKS
JACKSON INTL   SUNNY     83  71  67 S3        30.00S
JACKSON HAWKNS SUNNY     82  72  71 SE5       30.01S
MADISON        FAIR      81  70  69 CALM      30.01R
MERIDIAN KEY   SUNNY     85  73  67 CALM      30.02R HX  91
MERIDIAN NAS   SUNNY     83  73  72 CALM      30.03R
RAYMOND        FAIR      82  73  74 CALM      30.00S
VICKSBURG VKS  SUNNY     82  72  69 CALM      30.01R
$$

MSZ059>079-231600-
SOUTH MISSISSIPPI

CITY           SKY/WX    TMP DP  RH WIND       PRES   REMARKS
COLUMBIA       FAIR      82 N/A N/A CALM      30.04S
HATTIESBURG    NOT AVBL
LAUREL         FAIR      81  70  70 NE3       30.01R
MCCOMB         NOT AVBL
NATCHEZ        SUNNY     84  73  69 SE5       30.00R HX  90
PINE BELT      MOSUNNY   80  72  76 NE3       30.02R
$$

MSZ080>082-231600-
COASTAL MISSISSIPPI

CITY           SKY/WX    TMP DP  RH WIND       PRES   REMARKS
BAY ST LOUIS   SUNNY     82  72  69 CALM      29.98R
BILOXI         SUNNY     84  72  67 NE6       29.97R
PASCAGOULA     NOT AVBL
GULFPORT       NOT AVBL
$$

LAZ007>009-015>016-023>026-231600-
NORTHEAST LOUISIANA

CITY           SKY/WX    TMP DP  RH WIND       PRES   REMARKS
BASTROP        FAIR      83  73  70 CALM      30.00S
TALLULAH/VBURG SUNNY     81  72  74 CALM      30.00R
VIDALIA          N/A    N/A N/A N/A MISG      29.98R
$$




USA.gov is the U.S. government's official web portal to all federal, state and local government web resources and services.